,,Stat6,,Stat2,,Stat8,,Stat9,,Stat10,,Wind1,,Wind1,
time,status,PA1M_AVG,status,PR1M_SUM,status,RH1M_AVG,status,SR1M_AVG,status,TA1M_AVG,status,W1dAve1m,status,W1sAve1m,
2004-04-25, 00:00:00,VALID,917.354,VALID,0,VALID,96.6572,VALID,0.0169808,VALID,20.0806,VALID,82,VALID,1.01126,
2004-04-25, 00:01:00,VALID,917.343,VALID,0,VALID,96.5415,VALID,0.0169808,VALID,20.0999,VALID,120,VALID,0.794552,
2004-04-25, 00:02:00,VALID,917.337,VALID,0,VALID,96.5097,VALID,0,VALID,20.1131,VALID,71,VALID,0.585747,
2004-04-25, 00:03:00,VALID,917.325,VALID,0,VALID,96.4741,VALID,0.0169808,VALID,20.0962,VALID,159,VALID,0.284598,
2004-04-25, 00:04:00,VALID,917.324,VALID,0,VALID,96.4627,VALID,0.0339617,VALID,20.1029,VALID,125,VALID,0.746911,
2004-04-25, 00:05:00,VALID,917.317,VALID,0,VALID,96.4639,VALID,0,VALID,20.093,VALID,130,VALID,0.702035,
2004-04-25, 00:06:00,VALID,917.306,VALID,0,VALID,96.5313,VALID,0.0509425,VALID,20.0932,VALID,115,VALID,0.357067,
2004-04-25, 00:07:00,VALID,917.296,VALID,0,VALID,96.5059,VALID,0.0339617,VALID,20.0932,VALID,137,VALID,0.491186,
2004-04-25, 00:08:00,VALID,917.285,VALID,0,VALID,96.5428,VALID,0.0169808,VALID,20.087,VALID,149,VALID,0.00708576,
2004-04-25, 00:09:00,VALID,917.278,VALID,0,VALID,96.5389,VALID,0.0169808,VALID,20.0639,VALID,148,VALID,0.356957,
2004-04-25, 00:10:00,VALID,917.277,VALID,0,VALID,96.6102,VALID,0.0169808,VALID,20.0515,VALID,148,VALID,0.401344,
2004-04-25, 00:11:00,VALID,917.281,VALID,0,VALID,96.7386,VALID,0.0169808,VALID,20.0353,VALID,149,VALID,0.421181,
2004-04-25, 00:12:00,VALID,917.267,VALID,0,VALID,96.867,VALID,0,VALID,20.0227,VALID,161,VALID,0.349927,
2004-04-25, 00:13:00,VALID,917.263,VALID,0,VALID,96.8568,VALID,0,VALID,20.0257,VALID,164,VALID,0.542067,
2004-04-25, 00:14:00,VALID,917.24,VALID,0,VALID,96.8467,VALID,-0.0169808,VALID,20.0103,VALID,156,VALID,0.151414,
2004-04-25, 00:15:00,VALID,917.241,VALID,0,VALID,96.9281,VALID,0,VALID,19.9837,VALID,156,VALID,0.0658482,
2004-04-25, 00:16:00,VALID,917.233,VALID,0,VALID,96.9916,VALID,0,VALID,19.9747,VALID,156,VALID,0.014881,
2004-04-25, 00:17:00,VALID,917.224,VALID,0,VALID,97.0908,VALID,0,VALID,19.9546,VALID,156,VALID,0.235677,
2004-04-25, 00:18:00,VALID,917.228,VALID,0,VALID,97.2065,VALID,0,VALID,19.9414,VALID,156,VALID,0.438802,
2004-04-25, 00:19:00,VALID,917.205,VALID,0,VALID,97.2498,VALID,-0.0169808,VALID,19.9191,VALID,158,VALID,0.26391,
2004-04-25, 00:20:00,VALID,917.208,VALID,0,VALID,97.3439,VALID,0,VALID,19.9129,VALID,146,VALID,0.265443,
2004-04-25, 00:21:00,VALID,917.183,VALID,0,VALID,97.4024,VALID,-0.0169808,VALID,19.8836,VALID,144,VALID,0.401953,
2004-04-25, 00:22:00,VALID,917.164,VALID,0,VALID,97.5015,VALID,0,VALID,19.8542,VALID,146,VALID,0.442708,
2004-04-25, 00:23:00,VALID,917.16,VALID,0,VALID,97.677,VALID,0.0169808,VALID,19.8383,VALID,145,VALID,0.57168,
2004-04-25, 00:24:00,VALID,917.147,VALID,0,VALID,97.8093,VALID,0,VALID,19.8157,VALID,154,VALID,0.846742,
2004-04-25, 00:25:00,VALID,917.132,VALID,0,VALID,98.0127,VALID,0.0169808,VALID,19.7998,VALID,146,VALID,0.922619,
2004-04-25, 00:26:00,VALID,917.134,VALID,0,VALID,98.1806,VALID,0,VALID,19.7772,VALID,147,VALID,0.615767,
2004-04-25, 00:27:00,VALID,917.118,VALID,0,VALID,98.2709,VALID,0,VALID,19.7611,VALID,152,VALID,0.639353,
2004-04-25, 00:28:00,VALID,917.114,VALID,0,VALID,98.351,VALID,0.0169808,VALID,19.7251,VALID,159,VALID,0.74673,
2004-04-25, 00:29:00,VALID,917.1,VALID,0,VALID,98.4425,VALID,0.0169808,VALID,19.7226,VALID,166,VALID,0.410666,
2004-04-25, 00:30:00,VALID,917.083,VALID,0,VALID,98.5354,VALID,0,VALID,19.6831,VALID,143,VALID,0.958507,
2004-04-25, 00:31:00,VALID,917.084,VALID,0,VALID,98.4998,VALID,0,VALID,19.6707,VALID,129,VALID,0.573552,
2004-04-25, 00:32:00,VALID,917.071,VALID,0,VALID,98.5188,VALID,0,VALID,19.6612,VALID,149,VALID,0.567383,
2004-04-25, 00:33:00,VALID,917.05,VALID,0,VALID,98.5227,VALID,0.0169808,VALID,19.6284,VALID,148,VALID,0.332127,
2004-04-25, 00:34:00,VALID,917.039,VALID,0,VALID,98.5137,VALID,0,VALID,19.6322,VALID,93,VALID,0.0922965,
2004-04-25, 00:35:00,VALID,917.033,VALID,0,VALID,98.5125,VALID,0.0169808,VALID,19.6252,VALID,95,VALID,0.0914062,
2004-04-25, 00:36:00,VALID,917.033,VALID,0,VALID,98.3751,VALID,0,VALID,19.6093,VALID,95,VALID,0.477148,
2004-04-25, 00:37:00,VALID,917.02,VALID,0,VALID,98.3561,VALID,-0.0169808,VALID,19.5768,VALID,100,VALID,0.812863,
2004-04-25, 00:38:00,VALID,917.014,VALID,0,VALID,98.2543,VALID,0.0169808,VALID,19.5775,VALID,108,VALID,0.586664,
2004-04-25, 00:39:00,VALID,917,VALID,0,VALID,98.2048,VALID,0,VALID,19.5509,VALID,113,VALID,0.203465,
2004-04-25, 00:40:00,VALID,916.984,VALID,0,VALID,98.2429,VALID,-0.0169808,VALID,19.5415,VALID,87,VALID,0.337636,
2004-04-25, 00:41:00,VALID,916.981,VALID,0,VALID,98.2658,VALID,0,VALID,19.5385,VALID,87,VALID,0.529576,
2004-04-25, 00:42:00,VALID,916.961,VALID,0,VALID,98.2137,VALID,-0.0509425,VALID,19.5514,VALID,132,VALID,1.32191,
2004-04-25, 00:43:00,VALID,916.949,VALID,0,VALID,97.9924,VALID,0,VALID,19.574,VALID,112,VALID,0.625762,
2004-04-25, 00:44:00,VALID,916.941,VALID,0,VALID,97.7978,VALID,-0.0169808,VALID,19.5803,VALID,122,VALID,0.917783,
2004-04-25, 00:45:00,VALID,916.911,VALID,0,VALID,97.7126,VALID,0,VALID,19.5775,VALID,123,VALID,1.41768,
2004-04-25, 00:46:00,VALID,916.888,VALID,0,VALID,97.6325,VALID,0,VALID,19.6066,VALID,135,VALID,1.10901,
2004-04-25, 00:47:00,VALID,916.859,VALID,0,VALID,97.5283,VALID,0,VALID,19.6098,VALID,132,VALID,1.41188,
2004-04-25, 00:48:00,VALID,916.843,VALID,0,VALID,97.4647,VALID,-0.101885,VALID,19.6409,VALID,142,VALID,1.19567,
2004-04-25, 00:49:00,VALID,916.825,VALID,0,VALID,97.3655,VALID,-0.101885,VALID,19.6441,VALID,138,VALID,1.22456,
2004-04-25, 00:50:00,VALID,916.791,VALID,0,VALID,97.246,VALID,-0.101885,VALID,19.6535,VALID,156,VALID,1.28018,
2004-04-25, 00:51:00,VALID,916.768,VALID,0,VALID,97.1938,VALID,-0.101885,VALID,19.6831,VALID,154,VALID,1.27671,
2004-04-25, 00:52:00,VALID,916.755,VALID,0,VALID,97.1633,VALID,-0.118866,VALID,19.6657,VALID,143,VALID,1.41069,
2004-04-25, 00:53:00,VALID,916.728,VALID,0,VALID,97.1964,VALID,-0.101885,VALID,19.6828,VALID,151,VALID,1.10751,
2004-04-25, 00:54:00,VALID,916.705,VALID,0,VALID,97.2243,VALID,-0.101885,VALID,19.6662,VALID,159,VALID,1.15067,
2004-04-25, 00:55:00,VALID,916.676,VALID,0,VALID,97.2752,VALID,-0.101885,VALID,19.6731,VALID,147,VALID,1.12845,
2004-04-25, 00:56:00,VALID,916.646,VALID,0,VALID,97.3515,VALID,-0.0849042,VALID,19.6602,VALID,134,VALID,1.36501,
2004-04-25, 00:57:00,VALID,916.621,VALID,0,VALID,97.3172,VALID,-0.0849042,VALID,19.6471,VALID,132,VALID,1.66914,
2004-04-25, 00:58:00,VALID,916.598,VALID,0,VALID,97.218,VALID,-0.0849042,VALID,19.6212,VALID,134,VALID,1.03034,
2004-04-25, 00:59:00,VALID,916.571,VALID,0,VALID,97.307,VALID,-0.101885,VALID,19.6083,VALID,138,VALID,0.856213,
2004-04-25, 01:00:00,VALID,916.553,VALID,0,VALID,97.3858,VALID,-0.101885,VALID,19.5956,VALID,160,VALID,0.80599,
2004-04-25, 01:01:00,VALID,916.542,VALID,0,VALID,97.4634,VALID,-0.101885,VALID,19.5668,VALID,146,VALID,0.724746,
2004-04-25, 01:02:00,VALID,916.521,VALID,0,VALID,97.4558,VALID,-0.0849042,VALID,19.5599,VALID,151,VALID,1.33346,
2004-04-25, 01:03:00,VALID,916.494,VALID,0,VALID,97.452,VALID,-0.101885,VALID,19.5407,VALID,146,VALID,0.744186,
2004-04-25, 01:04:00,VALID,916.484,VALID,0,VALID,97.4011,VALID,-0.118866,VALID,19.5343,VALID,136,VALID,0.884629,
2004-04-25, 01:05:00,VALID,916.464,VALID,0,VALID,97.3871,VALID,-0.101885,VALID,19.534,VALID,153,VALID,0.899009,
2004-04-25, 01:06:00,VALID,916.47,VALID,0,VALID,97.3006,VALID,-0.101885,VALID,19.5308,VALID,174,VALID,0.531808,
2004-04-25, 01:07:00,VALID,916.44,VALID,0,VALID,97.4087,VALID,-0.118866,VALID,19.531,VALID,148,VALID,0.78995,
2004-04-25, 01:08:00,VALID,916.423,VALID,0,VALID,97.5448,VALID,-0.101885,VALID,19.4985,VALID,171,VALID,0.818598,
2004-04-25, 01:09:00,VALID,916.409,VALID,0,VALID,97.7889,VALID,-0.101885,VALID,19.4729,VALID,170,VALID,1.29364,
2004-04-25, 01:10:00,VALID,916.379,VALID,0,VALID,98.0038,VALID,-0.118866,VALID,19.457,VALID,175,VALID,0.938542,
2004-04-25, 01:11:00,VALID,916.362,VALID,0,VALID,98.1552,VALID,-0.101885,VALID,19.4416,VALID,165,VALID,1.18874,
2004-04-25, 01:12:00,VALID,916.351,VALID,0,VALID,98.3421,VALID,-0.135847,VALID,19.4185,VALID,179,VALID,0.438227,
2004-04-25, 01:13:00,VALID,916.32,VALID,0,VALID,98.3879,VALID,-0.0849042,VALID,19.386,VALID,183,VALID,0.490552,
2004-04-25, 01:14:00,VALID,916.318,VALID,0,VALID,98.4921,VALID,-0.118866,VALID,19.3601,VALID,182,VALID,0.584936,
2004-04-25, 01:15:00,VALID,916.311,VALID,0,VALID,98.5926,VALID,-0.101885,VALID,19.3408,VALID,166,VALID,0.41441,
2004-04-25, 01:16:00,VALID,916.308,VALID,0,VALID,98.6778,VALID,-0.0849042,VALID,19.3274,VALID,142,VALID,0.70827,
2004-04-25, 01:17:00,VALID,916.285,VALID,0,VALID,98.7986,VALID,0,VALID,19.2973,VALID,137,VALID,0.885156,
2004-04-25, 01:18:00,VALID,916.285,VALID,0,VALID,98.8851,VALID,0.0169808,VALID,19.2683,VALID,134,VALID,0.804688,
2004-04-25, 01:19:00,VALID,916.286,VALID,0,VALID,98.9677,VALID,0,VALID,19.2325,VALID,132,VALID,0.371804,
2004-04-25, 01:20:00,VALID,916.282,VALID,0,VALID,99.0529,VALID,0.0169808,VALID,19.1995,VALID,106,VALID,0.809896,
2004-04-25, 01:21:00,VALID,916.264,VALID,0,VALID,99.2907,VALID,0.0169808,VALID,19.2096,VALID,144,VALID,1.18787,
2004-04-25, 01:22:00,VALID,916.25,VALID,0,VALID,99.3466,VALID,0,VALID,19.2288,VALID,123,VALID,1.42759,
2004-04-25, 01:23:00,VALID,916.254,VALID,0,VALID,99.2449,VALID,0,VALID,19.2648,VALID,142,VALID,1.68178,
2004-04-25, 01:24:00,VALID,916.234,VALID,0,VALID,99.0466,VALID,0.0169808,VALID,19.3072,VALID,144,VALID,1.41461,
2004-04-25, 01:25:00,VALID,916.238,VALID,0,VALID,98.8889,VALID,0,VALID,19.3294,VALID,147,VALID,1.87373,
2004-04-25, 01:26:00,VALID,916.225,VALID,0,VALID,98.6536,VALID,0.0169808,VALID,19.3778,VALID,160,VALID,1.29776,
2004-04-25, 01:27:00,VALID,916.23,VALID,0,VALID,98.4044,VALID,0,VALID,19.4074,VALID,142,VALID,1.13645,
2004-04-25, 01:28:00,VALID,916.222,VALID,0,VALID,98.2149,VALID,0,VALID,19.4297,VALID,155,VALID,1.43301,
2004-04-25, 01:29:00,VALID,916.22,VALID,0,VALID,98.0089,VALID,0,VALID,19.4454,VALID,155,VALID,1.12553,
2004-04-25, 01:30:00,VALID,916.211,VALID,0,VALID,97.8741,VALID,-0.0169808,VALID,19.4553,VALID,142,VALID,1.50391,
2004-04-25, 01:31:00,VALID,916.201,VALID,0,VALID,97.7177,VALID,0,VALID,19.4747,VALID,157,VALID,1.3244,
2004-04-25, 01:32:00,VALID,916.185,VALID,0,VALID,97.5613,VALID,0.0169808,VALID,19.4878,VALID,153,VALID,1.57943,
2004-04-25, 01:33:00,VALID,916.167,VALID,0,VALID,97.3998,VALID,-0.118866,VALID,19.5147,VALID,160,VALID,1.35195,
2004-04-25, 01:34:00,VALID,916.156,VALID,0,VALID,97.3846,VALID,-0.101885,VALID,19.5211,VALID,157,VALID,1.58854,
2004-04-25, 01:35:00,VALID,916.124,VALID,0,VALID,97.4303,VALID,-0.0849042,VALID,19.5308,VALID,152,VALID,1.52285,
2004-04-25, 01:36:00,VALID,916.1,VALID,0,VALID,97.3388,VALID,-0.118866,VALID,19.5407,VALID,152,VALID,2.03869,
2004-04-25, 01:37:00,VALID,916.077,VALID,0,VALID,97.1875,VALID,-0.101885,VALID,19.5402,VALID,145,VALID,1.89364,
2004-04-25, 01:38:00,VALID,916.07,VALID,0,VALID,97.0781,VALID,-0.0849042,VALID,19.576,VALID,159,VALID,1.77871,
2004-04-25, 01:39:00,VALID,916.044,VALID,0,VALID,96.731,VALID,-0.101885,VALID,19.5956,VALID,149,VALID,1.43114,
2004-04-25, 01:40:00,VALID,916.025,VALID,0,VALID,96.7043,VALID,-0.101885,VALID,19.5852,VALID,147,VALID,1.24572,
2004-04-25, 01:41:00,VALID,915.993,VALID,0,VALID,96.8073,VALID,-0.101885,VALID,19.5887,VALID,166,VALID,1.29653,
2004-04-25, 01:42:00,VALID,915.964,VALID,0,VALID,96.8174,VALID,-0.101885,VALID,19.583,VALID,166,VALID,0.858594,
2004-04-25, 01:43:00,VALID,915.958,VALID,0,VALID,96.8301,VALID,-0.101885,VALID,19.5601,VALID,139,VALID,0.861654,
2004-04-25, 01:44:00,VALID,915.943,VALID,0,VALID,96.9586,VALID,-0.101885,VALID,19.5373,VALID,160,VALID,0.970139,
2004-04-25, 01:45:00,VALID,915.939,VALID,0,VALID,96.9993,VALID,-0.101885,VALID,19.5147,VALID,152,VALID,1.1237,
2004-04-25, 01:46:00,VALID,915.941,VALID,0,VALID,96.97,VALID,-0.101885,VALID,19.4886,VALID,157,VALID,1.16071,
2004-04-25, 01:47:00,VALID,915.932,VALID,0,VALID,97.1035,VALID,-0.101885,VALID,19.4853,VALID,150,VALID,1.24818,
2004-04-25, 01:48:00,VALID,915.927,VALID,0,VALID,97.1188,VALID,0,VALID,19.4908,VALID,154,VALID,0.843205,
2004-04-25, 01:49:00,VALID,915.919,VALID,0,VALID,97.1188,VALID,-0.0169808,VALID,19.4913,VALID,156,VALID,0.850472,
2004-04-25, 01:50:00,VALID,915.906,VALID,0,VALID,97.2129,VALID,0,VALID,19.465,VALID,148,VALID,0.865916,
2004-04-25, 01:51:00,VALID,915.89,VALID,0,VALID,97.2205,VALID,-0.0169808,VALID,19.4622,VALID,157,VALID,0.92066,
2004-04-25, 01:52:00,VALID,915.873,VALID,0,VALID,97.0908,VALID,0,VALID,19.459,VALID,141,VALID,0.770597,
2004-04-25, 01:53:00,VALID,915.876,VALID,0,VALID,96.9001,VALID,-0.0169808,VALID,19.4454,VALID,141,VALID,0.551121,
2004-04-25, 01:54:00,VALID,915.87,VALID,0,VALID,96.7615,VALID,-0.0339617,VALID,19.4555,VALID,158,VALID,0.759146,
2004-04-25, 01:55:00,VALID,915.869,VALID,0,VALID,96.586,VALID,-0.0339617,VALID,19.4528,VALID,164,VALID,0.471839,
2004-04-25, 01:56:00,VALID,915.863,VALID,0,VALID,96.5389,VALID,-0.0169808,VALID,19.4588,VALID,171,VALID,0.36319,
2004-04-25, 01:57:00,VALID,915.876,VALID,0,VALID,96.6954,VALID,0.0169808,VALID,19.4553,VALID,190,VALID,0.445685,
2004-04-25, 01:58:00,VALID,915.867,VALID,0,VALID,96.8251,VALID,0,VALID,19.4456,VALID,187,VALID,0.653343,
2004-04-25, 01:59:00,VALID,915.884,VALID,0,VALID,97.0476,VALID,-0.0169808,VALID,19.4426,VALID,179,VALID,1.04142,
2004-04-25, 02:00:00,VALID,915.888,VALID,0,VALID,97.2269,VALID,0,VALID,19.4329,VALID,176,VALID,0.917874,
2004-04-25, 02:01:00,VALID,915.898,VALID,0,VALID,97.2968,VALID,0,VALID,19.4168,VALID,165,VALID,0.49673,
2004-04-25, 02:02:00,VALID,915.89,VALID,0,VALID,97.321,VALID,0,VALID,19.3942,VALID,135,VALID,0.636265,
2004-04-25, 02:03:00,VALID,915.889,VALID,0,VALID,97.4443,VALID,-0.0849042,VALID,19.3629,VALID,154,VALID,1.22275,
2004-04-25, 02:04:00,VALID,915.885,VALID,0,VALID,97.5524,VALID,-0.0679233,VALID,19.3534,VALID,156,VALID,1.20182,
2004-04-25, 02:05:00,VALID,915.874,VALID,0,VALID,97.4952,VALID,-0.101885,VALID,19.3666,VALID,125,VALID,0.953497,
2004-04-25, 02:06:00,VALID,915.872,VALID,0,VALID,97.2345,VALID,-0.118866,VALID,19.3728,VALID,142,VALID,1.2002,
2004-04-25, 02:07:00,VALID,915.871,VALID,0,VALID,97.1824,VALID,-0.101885,VALID,19.3827,VALID,141,VALID,0.954397,
2004-04-25, 02:08:00,VALID,915.869,VALID,0,VALID,97.059,VALID,-0.0849042,VALID,19.4019,VALID,118,VALID,1.41006,
2004-04-25, 02:09:00,VALID,915.851,VALID,0,VALID,96.3202,VALID,-0.0849042,VALID,19.4309,VALID,88,VALID,2.12926,
2004-04-25, 02:10:00,VALID,915.856,VALID,0,VALID,95.5598,VALID,-0.101885,VALID,19.5209,VALID,114,VALID,1.22994,
2004-04-25, 02:11:00,VALID,915.852,VALID,0,VALID,95.144,VALID,-0.101885,VALID,19.5996,VALID,112,VALID,1.2566,
2004-04-25, 02:12:00,VALID,915.837,VALID,0,VALID,94.7829,VALID,-0.101885,VALID,19.6217,VALID,87,VALID,1.00686,
2004-04-25, 02:13:00,VALID,915.846,VALID,0,VALID,94.4929,VALID,-0.0849042,VALID,19.6376,VALID,95,VALID,1.19453,
2004-04-25, 02:14:00,VALID,915.847,VALID,0,VALID,94.3798,VALID,-0.118866,VALID,19.6572,VALID,91,VALID,0.724466,
2004-04-25, 02:15:00,VALID,915.843,VALID,0,VALID,94.4217,VALID,-0.118866,VALID,19.6602,VALID,79,VALID,1.07777,
2004-04-25, 02:16:00,VALID,915.842,VALID,0,VALID,94.676,VALID,-0.101885,VALID,19.6707,VALID,86,VALID,1.43285,
2004-04-25, 02:17:00,VALID,915.825,VALID,0,VALID,94.9914,VALID,-0.101885,VALID,19.6478,VALID,121,VALID,0.938033,
2004-04-25, 02:18:00,VALID,915.832,VALID,0,VALID,95.2915,VALID,-0.101885,VALID,19.6115,VALID,98,VALID,0.84933,
2004-04-25, 02:19:00,VALID,915.832,VALID,0,VALID,95.673,VALID,-0.101885,VALID,19.5924,VALID,80,VALID,1.16741,
2004-04-25, 02:20:00,VALID,915.838,VALID,0,VALID,95.837,VALID,-0.101885,VALID,19.576,VALID,72,VALID,0.811012,
2004-04-25, 02:21:00,VALID,915.831,VALID,0,VALID,95.9731,VALID,-0.101885,VALID,19.5378,VALID,90,VALID,1.13263,
2004-04-25, 02:22:00,VALID,915.816,VALID,0,VALID,96.1498,VALID,-0.118866,VALID,19.4955,VALID,91,VALID,0.55293,
2004-04-25, 02:23:00,VALID,915.802,VALID,0,VALID,96.2439,VALID,-0.101885,VALID,19.4535,VALID,109,VALID,1.21211,
2004-04-25, 02:24:00,VALID,915.802,VALID,0,VALID,96.4003,VALID,-0.0849042,VALID,19.3952,VALID,107,VALID,1.06231,
2004-04-25, 02:25:00,VALID,915.772,VALID,0,VALID,96.8632,VALID,-0.101885,VALID,19.3405,VALID,132,VALID,1.3569,
2004-04-25, 02:26:00,VALID,915.747,VALID,0,VALID,97.1748,VALID,-0.101885,VALID,19.2951,VALID,144,VALID,0.973292,
2004-04-25, 02:27:00,VALID,915.741,VALID,0,VALID,97.3922,VALID,-0.0679233,VALID,19.2625,VALID,143,VALID,0.578506,
2004-04-25, 02:28:00,VALID,915.735,VALID,0,VALID,97.7317,VALID,-0.118866,VALID,19.2536,VALID,155,VALID,1.20331,
2004-04-25, 02:29:00,VALID,915.705,VALID,0,VALID,98.1475,VALID,-0.118866,VALID,19.2307,VALID,151,VALID,1.2394,
2004-04-25, 02:30:00,VALID,915.693,VALID,0,VALID,98.4158,VALID,-0.101885,VALID,19.1984,VALID,154,VALID,0.970424,
2004-04-25, 02:31:00,VALID,915.681,VALID,0,VALID,98.6346,VALID,-0.101885,VALID,19.1629,VALID,163,VALID,0.852778,
2004-04-25, 02:32:00,VALID,915.657,VALID,0,VALID,98.8634,VALID,-0.0849042,VALID,19.1271,VALID,154,VALID,0.823509,
2004-04-25, 02:33:00,VALID,915.652,VALID,0,VALID,99.0326,VALID,0,VALID,19.1038,VALID,144,VALID,0.942042,
2004-04-25, 02:34:00,VALID,915.64,VALID,0,VALID,99.1178,VALID,-0.0339617,VALID,19.0713,VALID,127,VALID,1.10483,
2004-04-25, 02:35:00,VALID,915.644,VALID,0,VALID,99.2767,VALID,0,VALID,19.0621,VALID,144,VALID,0.786882,
2004-04-25, 02:36:00,VALID,915.639,VALID,0,VALID,99.3072,VALID,0,VALID,19.0263,VALID,134,VALID,0.892299,
2004-04-25, 02:37:00,VALID,915.649,VALID,0,VALID,99.381,VALID,-0.0169808,VALID,18.9977,VALID,121,VALID,0.936651,
2004-04-25, 02:38:00,VALID,915.644,VALID,0,VALID,99.3657,VALID,0,VALID,18.9421,VALID,91,VALID,0.945313,
2004-04-25, 02:39:00,VALID,915.64,VALID,0,VALID,99.4229,VALID,-0.0339617,VALID,18.8972,VALID,75,VALID,0.659784,
2004-04-25, 02:40:00,VALID,915.635,VALID,0,VALID,99.6417,VALID,-0.0339617,VALID,18.878,VALID,79,VALID,0.888021,
2004-04-25, 02:41:00,VALID,915.632,VALID,0,VALID,99.7472,VALID,-0.0169808,VALID,18.8939,VALID,79,VALID,1.09863,
2004-04-25, 02:42:00,VALID,915.612,VALID,0,VALID,99.573,VALID,-0.0169808,VALID,18.9133,VALID,128,VALID,1.54821,
2004-04-25, 02:43:00,VALID,915.603,VALID,0,VALID,99.1597,VALID,0,VALID,18.9779,VALID,79,VALID,0.754383,
2004-04-25, 02:44:00,VALID,915.592,VALID,0,VALID,98.763,VALID,0,VALID,19.0236,VALID,64,VALID,0.880335,
2004-04-25, 02:45:00,VALID,915.593,VALID,0,VALID,98.3116,VALID,0,VALID,19.0916,VALID,72,VALID,1.05202,
2004-04-25, 02:46:00,VALID,915.583,VALID,0,VALID,97.6567,VALID,-0.0169808,VALID,19.1495,VALID,104,VALID,1.05799,
2004-04-25, 02:47:00,VALID,915.586,VALID,0,VALID,97.1519,VALID,-0.0509425,VALID,19.191,VALID,124,VALID,0.874637,
2004-04-25, 02:48:00,VALID,915.592,VALID,0,VALID,96.937,VALID,-0.0339617,VALID,19.2394,VALID,143,VALID,0.787946,
2004-04-25, 02:49:00,VALID,915.598,VALID,0,VALID,97.1048,VALID,0,VALID,19.2558,VALID,131,VALID,1.05816,
2004-04-25, 02:50:00,VALID,915.597,VALID,0,VALID,97.2104,VALID,-0.0169808,VALID,19.2459,VALID,154,VALID,0.782774,
2004-04-25, 02:51:00,VALID,915.587,VALID,0,VALID,97.4507,VALID,0,VALID,19.2136,VALID,136,VALID,0.856399,
2004-04-25, 02:52:00,VALID,915.587,VALID,0,VALID,97.616,VALID,0,VALID,19.1947,VALID,148,VALID,0.844477,
2004-04-25, 02:53:00,VALID,915.585,VALID,0,VALID,97.7381,VALID,-0.0169808,VALID,19.1488,VALID,136,VALID,1.00707,
2004-04-25, 02:54:00,VALID,915.574,VALID,0,VALID,97.9008,VALID,0,VALID,19.12,VALID,151,VALID,0.698438,
2004-04-25, 02:55:00,VALID,915.575,VALID,0,VALID,98.014,VALID,-0.0339617,VALID,19.1041,VALID,121,VALID,0.607777,
2004-04-25, 02:56:00,VALID,915.573,VALID,0,VALID,98.0191,VALID,-0.0339617,VALID,19.1011,VALID,140,VALID,0.574219,
2004-04-25, 02:57:00,VALID,915.579,VALID,0,VALID,97.9415,VALID,-0.0169808,VALID,19.0752,VALID,148,VALID,0.765988,
2004-04-25, 02:58:00,VALID,915.565,VALID,0,VALID,97.9555,VALID,-0.0509425,VALID,19.0655,VALID,152,VALID,0.961293,
2004-04-25, 02:59:00,VALID,915.574,VALID,0,VALID,97.8627,VALID,-0.0169808,VALID,19.0658,VALID,159,VALID,0.924162,
2004-04-25, 03:00:00,VALID,915.567,VALID,0,VALID,97.8017,VALID,-0.0339617,VALID,19.0626,VALID,153,VALID,0.92462,
2004-04-25, 03:01:00,VALID,915.547,VALID,0,VALID,97.8792,VALID,-0.0339617,VALID,19.0591,VALID,155,VALID,1.42634,
2004-04-25, 03:02:00,VALID,915.527,VALID,0,VALID,97.9733,VALID,-0.0509425,VALID,19.0626,VALID,147,VALID,0.930831,
2004-04-25, 03:03:00,VALID,915.523,VALID,0,VALID,98.0165,VALID,-0.0339617,VALID,19.0591,VALID,149,VALID,1.00781,
2004-04-25, 03:04:00,VALID,915.507,VALID,0,VALID,98.0712,VALID,-0.0339617,VALID,19.0425,VALID,146,VALID,1.07013,
2004-04-25, 03:05:00,VALID,915.499,VALID,0,VALID,98.173,VALID,-0.0339617,VALID,19.0526,VALID,149,VALID,1.16406,
2004-04-25, 03:06:00,VALID,915.485,VALID,0,VALID,98.384,VALID,-0.0339617,VALID,19.0593,VALID,152,VALID,0.771391,
2004-04-25, 03:07:00,VALID,915.467,VALID,0,VALID,98.4438,VALID,-0.0169808,VALID,19.0623,VALID,186,VALID,0.583008,
2004-04-25, 03:08:00,VALID,915.471,VALID,0,VALID,98.5315,VALID,0,VALID,19.0817,VALID,206,VALID,0.258789,
2004-04-25, 03:09:00,VALID,915.463,VALID,0,VALID,98.6193,VALID,-0.0339617,VALID,19.0815,VALID,175,VALID,0.465144,
2004-04-25, 03:10:00,VALID,915.471,VALID,0,VALID,98.674,VALID,-0.0339617,VALID,19.0815,VALID,145,VALID,0.536258,
2004-04-25, 03:11:00,VALID,915.48,VALID,0,VALID,98.6117,VALID,-0.0509425,VALID,19.0879,VALID,130,VALID,0.440044,
2004-04-25, 03:12:00,VALID,915.5,VALID,0,VALID,98.5392,VALID,0,VALID,19.069,VALID,126,VALID,0.0634301,
2004-04-25, 03:13:00,VALID,915.513,VALID,0,VALID,98.7172,VALID,-0.0509425,VALID,19.0591,VALID,149,VALID,0.824591,
2004-04-25, 03:14:00,VALID,915.518,VALID,0,VALID,98.8431,VALID,-0.0169808,VALID,19.0847,VALID,157,VALID,0.385938,
2004-04-25, 03:15:00,VALID,915.543,VALID,0,VALID,98.7884,VALID,-0.0169808,VALID,19.0785,VALID,151,VALID,0.748698,
2004-04-25, 03:16:00,VALID,915.544,VALID,0,VALID,98.9919,VALID,-0.0169808,VALID,19.0951,VALID,150,VALID,0.560501,
2004-04-25, 03:17:00,VALID,915.549,VALID,0,VALID,98.7871,VALID,-0.0339617,VALID,19.0819,VALID,111,VALID,0.119368,
2004-04-25, 03:18:00,VALID,915.529,VALID,0,VALID,98.646,VALID,-0.0169808,VALID,19.0425,VALID,111,VALID,0.270703,
2004-04-25, 03:19:00,VALID,915.527,VALID,0,VALID,98.6053,VALID,0,VALID,19.0164,VALID,94,VALID,0.387277,
2004-04-25, 03:20:00,VALID,915.509,VALID,0,VALID,98.4222,VALID,0,VALID,18.9613,VALID,65,VALID,0.437145,
2004-04-25, 03:21:00,VALID,915.495,VALID,0,VALID,98.1374,VALID,-0.0169808,VALID,18.8843,VALID,36,VALID,0.585938,
2004-04-25, 03:22:00,VALID,915.474,VALID,0,VALID,98.2938,VALID,-0.0509425,VALID,18.8236,VALID,43,VALID,0.733613,
2004-04-25, 03:23:00,VALID,915.464,VALID,0,VALID,98.791,VALID,-0.0339617,VALID,18.8202,VALID,65,VALID,0.603237,
2004-04-25, 03:24:00,VALID,915.437,VALID,0,VALID,98.9614,VALID,-0.0169808,VALID,18.8172,VALID,56,VALID,0.250533,
2004-04-25, 03:25:00,VALID,915.423,VALID,0,VALID,99.0669,VALID,-0.0169808,VALID,18.8005,VALID,77,VALID,0.338224,
2004-04-25, 03:26:00,VALID,915.401,VALID,0,VALID,99.512,VALID,0,VALID,18.8298,VALID,139,VALID,0.781622,
2004-04-25, 03:27:00,VALID,915.382,VALID,0,VALID,99.5755,VALID,-0.0169808,VALID,18.8395,VALID,142,VALID,0.526526,
2004-04-25, 03:28:00,VALID,915.375,VALID,0,VALID,99.7129,VALID,-0.0509425,VALID,18.849,VALID,154,VALID,0.922061,
2004-04-25, 03:29:00,VALID,915.38,VALID,0,VALID,99.7904,VALID,0,VALID,18.8619,VALID,157,VALID,0.435724,
2004-04-25, 03:30:00,VALID,915.366,VALID,0,VALID,99.8502,VALID,-0.0169808,VALID,18.8654,VALID,157,VALID,1.08966,
2004-04-25, 03:31:00,VALID,915.347,VALID,0,VALID,99.91,VALID,-0.0169808,VALID,18.8621,VALID,172,VALID,0.67702,
2004-04-25, 03:32:00,VALID,915.352,VALID,0,VALID,99.9468,VALID,0,VALID,18.8557,VALID,201,VALID,0.859557,
2004-04-25, 03:33:00,VALID,915.343,VALID,0,VALID,99.9858,VALID,0,VALID,18.8391,VALID,190,VALID,0.799653,